TimeEDT,TemperatureF,Dew PointF,Humidity,Sea Level PressureIn,VisibilityMPH,Wind Direction,Wind SpeedMPH,Gust SpeedMPH,PrecipitationIn,Events,Conditions,WindDirDegrees,DateUTC
12:51 AM,55.0,39.9,57,29.81,10.0,NNW,3.5,-,N/A,,Scattered Clouds,330,2013-05-17 04:51:00
1:51 AM,55.0,39.9,57,29.81,10.0,Variable,4.6,-,N/A,,Mostly Cloudy,0,2013-05-17 05:51:00
2:51 AM,53.1,39.9,61,29.82,10.0,WNW,4.6,-,N/A,,Clear,300,2013-05-17 06:51:00
3:51 AM,52.0,37.9,59,29.84,10.0,NW,10.4,-,N/A,,Clear,310,2013-05-17 07:51:00
4:51 AM,51.1,37.0,59,29.86,10.0,NW,11.5,-,N/A,,Clear,310,2013-05-17 08:51:00
5:51 AM,48.0,37.0,66,29.89,10.0,NW,9.2,-,N/A,,Clear,320,2013-05-17 09:51:00
6:51 AM,52.0,37.9,59,29.92,10.0,NW,15.0,19.6,N/A,,Clear,320,2013-05-17 10:51:00
7:51 AM,55.0,39.0,55,29.95,10.0,NW,16.1,-,N/A,,Clear,320,2013-05-17 11:51:00
8:51 AM,57.0,39.9,53,29.97,10.0,NNW,16.1,21.9,N/A,,Clear,330,2013-05-17 12:51:00
9:51 AM,60.1,39.9,47,29.98,10.0,NNW,13.8,21.9,N/A,,Scattered Clouds,340,2013-05-17 13:51:00
10:51 AM,60.1,41.0,49,29.99,10.0,NW,12.7,20.7,N/A,,Overcast,320,2013-05-17 14:51:00
11:51 AM,61.0,41.0,48,30.01,10.0,NW,11.5,20.7,N/A,,Mostly Cloudy,320,2013-05-17 15:51:00
12:51 PM,61.0,39.9,46,30.01,10.0,NW,11.5,19.6,N/A,,Mostly Cloudy,320,2013-05-17 16:51:00
1:51 PM,64.0,39.9,41,30.02,10.0,NNW,8.1,20.7,N/A,,Mostly Cloudy,330,2013-05-17 17:51:00
2:51 PM,66.9,39.0,36,30.03,10.0,NNW,13.8,18.4,N/A,,Partly Cloudy,340,2013-05-17 18:51:00
3:51 PM,68.0,37.0,32,30.04,10.0,NW,13.8,21.9,N/A,,Mostly Cloudy,320,2013-05-17 19:51:00
4:51 PM,64.9,35.1,33,30.06,10.0,NNW,15.0,19.6,N/A,,Mostly Cloudy,330,2013-05-17 20:51:00
5:51 PM,64.0,35.1,34,30.08,10.0,North,5.8,-,N/A,,Overcast,10,2013-05-17 21:51:00
6:51 PM,63.0,34.0,34,30.10,10.0,NNW,6.9,-,N/A,,Overcast,340,2013-05-17 22:51:00
7:51 PM,60.1,35.1,39,30.12,10.0,NW,3.5,-,N/A,,Scattered Clouds,320,2013-05-17 23:51:00
8:51 PM,57.0,37.0,47,30.15,10.0,Calm,Calm,-,N/A,,Partly Cloudy,0,2013-05-18 00:51:00
9:51 PM,54.0,39.0,57,30.18,10.0,Calm,Calm,-,N/A,,Overcast,0,2013-05-18 01:51:00
10:51 PM,55.0,37.9,53,30.19,10.0,West,3.5,-,N/A,,Overcast,280,2013-05-18 02:51:00
11:51 PM,52.0,39.0,61,30.20,10.0,Calm,Calm,-,N/A,,Scattered Clouds,0,2013-05-18 03:51:00